Weather in Okunevo

Russia / Tyumen Oblast     55°43′02″N   68°41′31″E
temp.,
°C
wind,
m/s
gust,
m/s
humid.,
%
clouds,
%
prec.,
mm/h
press.,
hPa
HPBL,
m
22 january, fri
fri2223:00−25w489894 0.1 1013137
02:00−27wsw479937 0.0 1013110
05:00−27wsw479967 0.0 1014125
08:00−27w469991 0.0 101591
11:00−25w369893 0.0 1016194
14:00−23w359698 0.0 1017291
17:00−24w239899 0.1 101969
20:00−25nw339895 0.1 102174
23 january, sat
sat2323:00−28nnw339791 0.1 102342
02:00−30nnw339889 0.0 102532
05:00−33nnw449762 0.0 102858
08:00−36nnw34970 0.0 103162
11:00−34nnw35950 0.0 1033169
14:00−32nw359473 0.0 1035258
17:00−36nw349653 0.0 103631
20:00−37nw239670 0.0 103820
24 january, sun
sun2423:00−36nw229585 0.0 103919
02:00−35wnw1294100 0.0 103919
05:00−34wsw1193100 0.0 103919
08:00−33sse1193100 0.0 104019
11:00−31sse229398 0.0 1040116
14:00−30se239317 0.0 1040181
17:00−33ese33958 0.0 104122
20:00−34ese349525 0.0 104237
25 january, mon
mon2523:00−32ese359451 0.0 1042123
02:00−31ese4694100 0.0 1042178
05:00−29se5794100 0.0 1040226
08:00−28ese5798100 0.3 1040244
11:00−27se5898100 1.1 1039252
14:00−25ese5796100 0.2 1038288
17:00−26ese4897100 0.3 1038227
20:00−26ese5897100 0.1 1039238
26 january, tue
tue2623:00−27ese4797100 0.1 1038225
02:00−27ese469899 0.1 1038170
05:00−28ese3698100 0.1 1038137
08:00−26ese4698100 0.1 1039179
11:00−24se4697100 0.3 1039223
14:00−22se469796 0.1 1038233
17:00−23se479897 0.1 1038193
20:00−22sse4798100 0.1 1038221